{"data":{"norad_id":66101,"intl_designator":"2025-236R","name":"STARLINK-35595","alt_names":[],"object_type":"PAYLOAD","status":"ACTIVE","operator":null,"country":"US","launch_date":"2025-10-19","launch_site_code":"AFWTR","launch_vehicle":null,"mission":null,"orbit_class":"UNKNOWN","rcs_meters":null,"size_class":null,"mass_kg":null,"dimensions":null,"purposes":["comms"],"wikipedia_slug":null,"has_3d_model":false,"image_url":null,"decayed_at":null,"tle_current":{"epoch":"2026-05-24T04:56:23.591040Z","epoch_age_seconds":144010,"freshness":"FRESH","line1":"1 66101U 25236R   26144.20582860  .00009171  00000+0  32135-3 0  9994","line2":"2 66101  53.1571 113.3063 0001043  90.2692 269.8429 15.30201775 34447","mean_motion":15.30201775,"eccentricity":0.0001043,"inclination_deg":53.1571,"raan_deg":113.3063,"arg_perigee_deg":90.2692,"mean_anomaly_deg":269.8429,"bstar":0.00032135,"rev_number":3444,"period_min":94.105236546337,"perigee_km":474.49496552633,"apogee_km":475.92457366246,"semimajor_km":6853.3467695944,"source":"CELESTRAK","updated_at":"2026-05-25T13:38:21.029971Z"}}}